Find Starlink 32757

NORAD ID: 62492 Int'l Des: 2025-003 Owner: SPXS Country: US Constellation: starlink operational
LEOCIRCULAR

当前视图

正在加载3D地球...

About Starlink 32757

Starlink 32757 (NORAD 62492) is a starlink constellation satellite (v2 mini) launched Jan 6, 2025 by SPXS of US. It operates in LEO, CIRCULAR orbit with a mass of 730.00 kg.

关于 Starlink 32757

正在加载描述...

即将过境

Passes for default location (London). Set your location on the main map for personalized predictions.

高度历史

Loading altitude history...

两行轨道根数

1 62492U 25003F 26169.47902629 .00013670 00000-0 50518-3 0 9995
2 62492 42.9925 79.9621 0002899 104.8176 255.2997 15.27588697 81966
Epoch: Jun 18, 2026 • Age: 13 hours

当前状态

高度 483.0 km
速度 7.63 km/s
星下点 37.86°N, 74.74°W
发射日期 Jan 6, 2025
运行时间 1.4 years
类型 internet

技术详情

分类 Payload
质量 730.00 kg
干质量 700.00 kg
总质量 730.00 kg
长度 0.30 m
直径 4.10 m
跨度 29.00 m
形状 Box + pan
制造商 SPXS
平台类型 Starlink V2M
阶段状态 In Orbit
所有者/国家 SPXS/US

Most Searched